Flag for U.S.A. Weather past 2 weeks in Moreno Valley, California, U.S.A.

Now
86 °F

Passing clouds.


Feels Like: 83 °F
Forecast: 61 / 92 °F
Wind: 2 mph from North

Location: Riverside / March Air Force Base

Current Time: Sep 1, 2014 at 11:41:25 AM

Latest Report: Sep 1, 2014 at 10:58 AM


Visibility: 10 mi

Pressure: 29.84 "Hg

Humidity: 25%

Dew point: 47 °F

Location of Moreno ValleyLocation

Historic Weather in Moreno Valley — Graph

°F

Moreno Valley temperature yesterday

Maximum temperature yesterday: 96 °F (at 2:58 PM)
Minimum temperature yesterday: 63 °F (at 5:58 AM)
Average temperature yesterday: 79 °F

Past Weeks' High & Low Weather Summary

 TemperatureHumidityPressure
High99 °F (Aug 30, 2:58 PM)100% (Aug 21, 2:58 AM)30.05 "Hg (Aug 21, 2:58 AM)
Low56 °F (Aug 24, 5:58 AM)13% (Aug 30, 12:58 PM)29.73 "Hg (Aug 30, 4:58 PM)
Average76 °F51%29.89 "Hg
* Reported Aug 17 9:58 AM — Sep 1 9:58 AM, Moreno Valley, Weather by CustomWeather, © 2014

Note: Actual official high and low records may vary slightly from our data, if they occured in-between our weather recording intervals... More about our weather records

Advertising

Moreno Valley weather history for previous 24 hours

 ConditionsComfort  
Time TempWeatherWind HumidityBarometerVisibility
9:58 AM
Sep 1
80 °FPassing clouds.3 mph40%29.84 "Hg10 mi
8:58 AM74 °FPassing clouds.1 mph57%29.83 "Hg10 mi
7:58 AM69 °FPassing clouds.1 mph67%29.83 "Hg10 mi
6:58 AM60 °FPassing clouds.No wind78%29.83 "Hg10 mi
5:58 AM60 °FClear.No wind80%29.81 "Hg10 mi
4:58 AM62 °FClear.No wind71%29.80 "Hg9 mi
3:58 AM62 °FClear.No wind72%29.80 "Hg5 mi
2:58 AM64 °FClear.No wind67%29.80 "Hg5 mi
1:58 AM64 °FClear.2 mph71%29.80 "Hg10 mi
12:58 AM68 °FClear.3 mph69%29.81 "Hg5 mi
11:58 PM
Aug 31
69 °FClear.3 mph66%29.81 "Hg8 mi
10:58 PM72 °FClear.5 mph55%29.82 "Hg7 mi
9:58 PM75 °FClear.No wind51%29.80 "Hg10 mi
8:58 PM78 °FClear.1 mph48%29.81 "Hg10 mi
7:58 PM80 °FSunny.No wind42%29.79 "Hg10 mi
6:58 PM85 °FSunny.8 mph36%29.77 "Hg10 mi
5:58 PM89 °FSunny.10 mph26%29.77 "Hg10 mi
4:58 PM92 °FSunny.13 mph26%29.75 "Hg10 mi
3:58 PM94 °FSunny.13 mph26%29.75 "Hg10 mi
2:58 PM96 °FSunny.14 mph24%29.76 "Hg10 mi
1:58 PM95 °FSunny.13 mph24%29.78 "Hg10 mi
12:58 PM94 °FSunny.8 mph24%29.80 "Hg10 mi
11:58 AM92 °FSunny.5 mph22%29.81 "Hg10 mi
Weather by CustomWeather, © 2014

See weather overviewHow to use our weather pages